Zurück zum Katalog

COSMOS 252 DEB

AktivLEO
NORAD 19294·DEBRIS·🇷🇺 Russia

Gestartet Nov 1, 1968 von Baikonur Cosmodrome

Loading…

Nächste Überflüge (nächste 24 Stunden)

TLE

AktuellSource: Space-Track

Epoche: Sep 14, 2026, 13:48 UTC

1 19294U 68097EE  26257.57507892  .00000439  00000-0  53219-3 0  9999
2 19294  62.2425 103.9431 0621815 339.7928  17.9407 13.14386724817028

Verfolge COSMOS 252 DEB in Echtzeit mit AllMySat

Download on the App Store